GFSSGP_925_thetae_000.txt.gz
Theta_e
322 324 327 336 336 316 317 319 317 319 319 319 319 316 317 317 319 318 322 321 322 323 326 327 326 328 325 322 322 322 322 321 321 323 325 327 327 328 330 330 330 330 331 333 333 335 337 335 337
323 328 331 331 333 316 314 317 317 317 318 317 316 316 319 320 319 320 320 319 319 321 326 328 327 325 324 324 323 322 323 323 323 324 326 327 327 328 328 328 330 331 331 332 332 334 336 337 332
327 333 334 333 323 316 314 315 316 316 317 316 317 317 320 322 321 319 318 318 315 316 322 325 327 324 324 324 323 322 324 321 324 325 325 324 326 326 327 328 328 330 331 331 332 334 335 336 333
333 332 329 328 316 315 315 314 315 316 317 316 316 321 321 320 320 319 317 315 315 315 316 319 321 323 324 323 322 320 322 324 324 325 325 325 324 325 326 327 327 328 330 331 332 334 336 336 331
332 325 329 325 317 315 315 316 314 316 316 316 317 322 322 319 319 318 316 316 315 315 319 320 316 319 322 322 323 325 324 324 325 325 325 324 324 324 325 326 327 327 331 331 332 334 335 334 333
327 324 326 326 318 317 317 316 316 316 315 315 320 320 320 319 319 318 317 317 318 318 315 314 318 319 315 314 318 320 322 325 325 324 324 324 323 324 324 325 327 327 330 332 332 333 334 333 330
329 329 331 322 317 318 317 316 317 316 317 317 315 320 318 317 317 316 316 315 314 313 313 314 315 316 317 318 321 322 319 322 324 324 325 324 323 323 323 325 327 328 330 332 332 333 333 331 331
328 323 320 317 317 318 317 316 315 316 318 318 318 319 317 316 316 316 315 314 315 315 316 318 318 318 318 318 319 319 319 322 322 322 322 322 322 322 323 325 327 329 331 332 332 334 333 331 330
322 322 319 319 318 318 315 316 317 317 318 319 318 317 315 315 316 316 315 315 316 318 321 321 320 319 318 319 320 318 318 319 319 319 318 321 321 320 321 324 326 329 331 332 333 333 331 331 331
321 318 320 318 316 315 315 316 317 318 319 319 319 315 316 316 316 315 314 315 317 321 322 322 319 319 319 321 320 319 320 319 319 315 315 316 316 318 321 323 326 328 329 331 332 331 332 334 331
324 321 318 318 316 314 316 317 317 319 319 318 318 315 314 314 315 315 316 318 319 321 323 321 320 320 320 321 320 320 320 320 319 319 320 321 319 319 322 323 326 328 329 330 330 331 332 333 332
323 319 318 318 317 317 317 316 318 319 318 317 317 314 314 313 313 315 317 320 322 322 321 320 320 320 320 321 319 320 321 320 321 319 321 322 322 321 322 324 325 327 328 327 327 328 332 332 332
319 319 318 317 315 317 316 317 318 317 317 317 315 314 313 313 314 317 319 321 323 321 320 320 322 322 321 321 321 321 321 322 321 320 322 322 323 323 324 325 326 326 326 328 327 330 332 333 334
319 319 317 316 316 316 316 317 317 318 318 317 315 313 313 313 314 317 319 322 323 322 320 321 322 323 322 320 322 323 323 322 322 321 321 321 322 323 325 325 325 327 327 328 329 332 333 334 333
319 319 318 316 316 317 315 317 316 318 317 318 315 313 314 314 315 317 320 324 322 321 320 319 322 323 323 322 324 324 323 323 323 323 321 321 324 325 326 325 325 325 326 329 330 331 332 332 332
321 317 318 316 316 317 315 315 317 317 317 317 315 314 314 314 316 318 321 323 322 322 320 319 323 323 323 322 324 324 323 323 323 324 325 325 325 325 326 326 326 326 327 330 330 330 330 331 330
319 318 317 318 316 317 315 315 319 316 317 318 315 314 314 314 315 318 321 324 323 322 320 320 322 324 323 323 324 325 324 325 325 324 324 326 326 327 326 326 327 323 329 331 331 331 330 330 329
321 318 318 319 317 318 315 314 317 317 318 319 314 314 315 315 315 319 321 324 324 323 320 321 322 324 325 325 324 325 326 326 326 326 326 326 325 324 324 326 325 328 329 329 329 330 330 330 329
321 321 320 320 318 318 316 315 316 316 319 317 314 314 314 314 315 319 320 325 324 325 320 320 320 325 325 325 326 326 326 326 326 326 326 326 326 324 326 324 325 328 328 328 329 329 330 330 329
321 321 321 319 318 316 316 317 317 318 319 318 315 314 314 313 314 317 320 321 324 323 324 320 321 324 324 325 325 326 327 327 327 327 327 326 325 328 329 327 328 328 328 326 328 329 329 329 329
319 320 321 320 319 318 318 318 320 319 320 321 315 314 313 313 314 316 319 319 324 322 320 321 320 319 322 325 326 327 327 327 327 327 328 328 322 326 327 328 326 327 328 328 328 328 328 328 328
318 319 321 322 320 319 319 319 319 320 320 321 317 314 313 313 314 316 318 319 322 325 323 320 320 318 315 318 326 326 326 327 327 327 328 329 327 326 328 328 328 326 325 327 328 328 328 327 328
318 318 318 321 319 318 320 320 321 320 323 325 318 315 313 313 314 317 318 319 321 326 325 322 320 318 322 322 323 326 326 327 327 328 329 330 328 327 330 330 328 330 329 327 327 328 328 328 328
318 320 321 319 318 321 319 320 320 321 322 324 319 316 314 314 313 316 320 321 321 324 325 321 322 325 325 320 323 325 326 326 323 323 324 326 329 330 330 330 328 329 330 330 329 329 328 329 328
320 319 321 322 321 323 321 322 322 321 320 324 320 316 315 315 313 316 317 319 321 322 326 324 324 323 324 319 319 320 324 324 321 322 323 325 327 330 330 331 331 330 331 331 330 331 330 329 329
317 319 322 324 324 324 329 328 323 328 321 323 321 317 315 313 315 316 317 319 322 322 324 326 324 322 323 320 320 319 319 322 321 320 321 322 322 324 328 330 329 329 331 331 330 330 329 329 331
318 321 318 320 324 324 330 332 330 329 325 324 320 316 315 314 316 315 316 319 320 323 322 325 324 321 321 321 320 320 321 320 320 320 319 320 320 321 325 327 327 324 325 327 330 330 331 330 329
317 319 323 319 324 326 326 337 334 331 328 324 319 317 315 314 316 314 316 319 320 323 322 324 321 318 317 316 319 319 320 320 321 319 319 320 321 319 320 321 321 324 322 320 322 328 329 329 329
328 330 330 327 324 325 325 335 333 332 328 324 320 317 315 315 316 315 317 319 320 321 323 323 321 320 319 318 316 317 317 319 320 320 318 320 323 324 320 324 323 323 321 321 322 324 322 322 320
331 334 334 335 333 328 332 332 332 330 326 324 320 318 315 316 315 316 317 319 321 322 322 322 322 321 321 320 319 320 318 316 318 319 319 320 322 323 321 324 321 321 321 321 322 323 323 323 323

GFSSGP_925_thetae_003.txt.gz
Theta_e
324 324 330 335 335 316 320 318 318 319 318 318 317 316 316 316 317 312 321 322 323 323 325 326 329 332 331 324 323 322 322 322 320 322 322 324 327 328 329 331 331 331 330 331 333 334 335 338 338
325 329 331 327 332 317 315 315 317 316 316 314 315 316 318 319 320 320 319 319 319 318 322 327 327 326 327 326 325 325 326 326 324 323 323 325 327 328 328 328 329 331 331 330 331 333 334 336 337
327 333 333 333 325 321 314 314 315 315 315 315 316 317 320 321 319 319 319 318 315 315 318 320 322 324 326 330 329 327 327 327 325 323 323 325 325 325 326 328 328 328 330 330 331 331 332 334 336
331 331 324 331 319 315 314 313 314 316 316 314 317 320 320 319 319 320 316 315 315 314 315 319 324 326 328 332 330 328 327 324 325 324 324 325 325 325 325 326 327 328 328 330 330 331 333 335 336
332 323 328 327 320 315 314 313 313 315 315 315 318 321 320 319 319 317 316 316 315 315 318 322 324 328 333 331 328 326 324 324 323 325 325 325 325 325 324 324 325 327 327 328 331 330 334 336 334
325 323 328 328 324 315 316 315 314 315 314 318 319 319 318 319 318 318 317 318 318 318 318 320 324 325 318 320 321 320 321 322 322 325 325 325 325 325 325 324 324 326 328 327 331 331 334 333 330
327 328 332 330 320 317 316 314 313 315 314 315 317 319 317 317 317 315 315 314 313 313 314 315 315 316 317 318 318 320 324 323 323 325 326 325 325 324 324 324 324 325 328 328 330 331 332 331 330
326 325 323 317 315 317 316 315 313 315 317 316 317 317 315 315 314 314 314 315 315 316 319 318 317 318 318 317 318 319 319 321 323 324 324 324 323 324 323 324 324 326 328 329 331 332 333 332 330
319 324 323 319 315 317 314 314 314 316 317 317 316 315 314 314 315 315 315 316 318 320 321 322 320 318 318 319 320 320 319 318 319 319 319 320 321 322 323 322 323 326 328 330 331 332 333 330 330
321 318 320 315 315 314 313 314 315 317 318 317 314 314 314 314 315 314 315 317 320 320 322 321 319 319 319 320 320 320 320 319 319 318 315 314 319 322 321 320 322 326 328 330 331 332 332 331 331
323 325 318 317 315 313 313 315 316 317 318 316 314 313 313 313 314 315 317 319 320 321 320 319 319 320 320 320 320 319 319 320 320 318 319 318 317 315 317 322 324 325 327 328 331 330 331 331 330
323 322 318 317 316 314 314 315 318 318 317 316 314 313 313 313 313 315 318 320 322 320 320 319 320 321 320 320 320 320 319 319 319 318 319 319 321 318 319 320 321 324 325 326 326 326 331 331 329
319 319 317 316 314 315 315 316 317 317 316 315 313 313 313 312 314 318 320 322 321 321 319 320 321 322 321 320 321 321 320 320 320 320 321 322 322 322 322 323 323 324 325 326 328 327 329 330 330
319 317 317 315 314 314 315 316 317 316 316 314 313 312 312 313 315 318 321 322 320 319 319 319 320 321 321 320 323 322 322 321 321 320 320 320 321 323 323 324 324 325 326 326 327 326 329 333 332
318 319 317 316 314 316 314 316 315 316 316 314 313 312 313 312 316 318 322 321 320 318 318 318 321 321 322 321 323 322 322 322 322 320 319 320 323 323 324 324 325 326 326 327 327 327 328 330 332
320 317 318 317 315 316 315 316 315 316 316 314 313 313 313 313 316 319 322 321 321 318 319 317 321 322 322 322 323 323 323 323 323 323 324 324 324 325 325 326 325 326 326 326 327 328 330 331 333
318 320 317 318 315 316 315 316 316 316 316 315 313 313 313 314 315 319 322 322 321 318 319 318 322 322 323 322 324 325 325 325 324 324 324 325 326 326 326 326 326 327 328 328 329 328 331 331 332
319 320 318 318 317 315 314 314 315 316 315 315 313 313 314 314 315 319 322 322 322 319 318 318 323 324 325 325 325 325 326 326 325 325 325 325 324 324 326 326 323 321 328 327 329 329 330 331 331
319 320 321 320 318 317 316 315 315 317 316 314 313 313 314 314 315 319 322 323 322 321 319 318 322 323 323 324 325 325 326 325 326 325 325 324 323 324 325 326 328 328 329 329 330 330 330 330 330
318 319 319 318 318 316 317 317 315 316 317 315 313 313 313 313 314 317 320 322 322 321 322 319 322 323 324 324 325 325 326 326 326 326 325 325 326 324 325 326 328 328 329 328 330 330 330 330 330
319 319 319 319 319 316 316 316 318 317 317 316 313 313 312 312 314 315 317 319 322 319 319 320 316 318 322 325 326 326 326 326 326 326 322 325 327 327 325 327 328 328 328 329 328 329 329 329 329
319 318 318 320 318 317 316 317 318 318 318 318 314 312 312 312 313 315 315 316 323 322 319 319 317 316 316 324 325 325 326 327 327 327 327 325 326 327 327 327 327 327 327 328 329 329 329 329 328
321 320 318 319 319 317 319 318 318 319 320 322 314 313 311 311 312 315 315 317 321 323 320 320 319 322 320 322 326 327 325 326 328 326 327 323 324 326 327 327 326 328 328 328 328 328 329 328 328
320 317 318 317 317 318 317 318 318 321 321 322 316 314 312 311 312 315 317 318 319 324 321 321 323 324 320 323 325 325 323 322 323 325 328 328 328 327 329 328 328 328 328 327 328 328 328 328 327
316 315 316 319 320 322 320 320 320 319 319 322 320 315 313 312 311 315 314 317 318 322 323 320 323 323 319 321 324 326 321 321 323 324 324 328 329 330 329 327 328 328 329 329 327 327 327 329 328
315 315 317 320 320 320 324 325 325 321 324 319 321 316 313 312 311 314 315 317 319 320 324 324 322 322 319 319 321 321 320 320 320 320 321 328 329 329 329 329 329 329 330 330 329 329 328 329 329
316 318 316 318 320 322 323 325 328 325 325 322 317 314 314 313 312 315 315 317 318 320 321 325 323 321 319 320 319 319 321 319 319 319 319 321 325 328 326 325 328 329 330 330 330 331 331 329 330
315 316 318 316 322 323 323 328 329 329 327 325 317 315 314 312 313 314 314 316 318 321 321 324 323 320 321 319 320 320 319 317 318 319 319 319 323 325 323 323 324 326 328 329 329 329 329 329 329
321 323 323 317 319 322 322 327 327 329 328 326 319 315 314 313 315 314 313 317 319 320 321 323 323 318 317 318 319 319 320 320 317 319 321 319 320 321 322 320 321 322 325 327 328 328 327 328 327
320 321 324 323 326 325 325 329 325 329 330 326 321 316 314 314 315 313 314 317 317 320 320 323 321 318 315 315 316 316 318 319 318 318 321 322 320 322 321 320 320 320 322 326 327 325 326 326 324

GFSSGP_925_thetae_006.txt.gz
Theta_e
325 324 332 333 332 318 320 318 317 318 318 316 315 314 314 314 316 312 321 326 323 322 324 326 326 329 328 326 325 324 323 323 322 323 322 322 324 326 328 330 331 331 332 330 331 333 334 336 338
323 329 330 325 329 317 317 314 317 316 316 313 315 316 317 317 319 319 318 320 320 319 318 324 326 326 326 326 325 327 328 328 327 325 323 323 324 326 327 328 328 329 331 331 330 331 333 334 337
327 333 331 329 324 327 318 313 315 315 314 315 315 317 318 319 318 319 319 319 317 315 315 317 318 321 327 334 333 330 329 329 328 327 324 323 324 326 326 327 328 328 329 329 330 331 332 333 335
330 329 322 330 330 321 315 313 314 315 315 312 315 319 319 319 319 319 317 317 315 314 314 316 321 326 331 334 333 331 330 329 327 326 325 324 324 325 326 326 326 327 328 328 330 330 331 332 334
328 321 327 328 327 315 311 313 312 314 315 314 317 319 319 318 319 318 317 316 315 314 314 319 323 328 335 334 332 330 326 325 324 324 324 325 324 325 325 325 325 325 326 328 328 331 330 332 335
324 322 329 331 328 317 314 313 313 314 313 317 318 318 318 318 318 317 317 318 317 316 318 318 322 324 327 330 327 325 324 324 324 323 323 325 325 324 324 325 325 324 324 327 327 328 330 332 333
326 326 330 329 328 315 315 312 313 313 313 315 316 317 316 316 315 315 314 313 313 313 315 316 314 316 323 327 321 319 319 323 325 323 324 325 324 325 325 325 325 325 324 327 328 330 331 332 331
323 325 326 319 318 315 315 312 313 314 314 315 316 316 315 313 313 313 314 315 315 316 318 319 317 317 318 317 318 320 322 322 323 322 322 324 324 325 325 325 324 324 324 327 328 330 332 331 331
318 323 325 324 315 315 313 314 313 315 315 316 315 314 313 313 313 314 315 317 318 319 321 321 320 318 318 319 320 320 320 320 322 320 319 320 320 321 322 324 324 325 325 327 329 330 332 332 331
321 322 324 320 313 315 313 313 314 317 317 315 314 313 312 313 314 314 316 318 320 321 320 320 319 319 320 320 320 319 319 319 319 319 318 317 315 317 320 322 322 323 325 327 328 330 332 332 331
320 324 321 319 314 313 313 313 314 316 317 314 313 313 312 313 313 315 318 319 321 320 319 319 320 320 321 320 319 319 318 318 318 317 318 318 318 315 320 321 321 322 325 326 329 330 331 331 330
323 321 319 319 317 312 313 313 317 316 315 315 312 312 312 312 313 315 318 320 320 319 319 319 319 321 321 320 320 320 319 318 318 318 319 319 318 318 315 317 321 322 323 325 326 326 329 330 330
321 319 317 316 312 314 313 315 317 316 316 314 311 312 312 311 314 317 319 321 319 318 319 318 320 321 322 320 321 322 321 321 320 320 321 320 320 320 318 319 320 322 324 324 325 326 327 329 331
320 317 317 314 314 314 315 316 317 316 315 313 312 312 312 312 314 317 320 320 319 318 318 318 320 321 321 321 322 322 322 321 321 321 320 320 321 321 322 322 322 323 324 324 325 326 326 329 330
317 319 317 317 314 315 314 315 316 316 314 313 312 312 312 312 314 318 321 320 320 318 318 318 322 322 322 321 322 323 322 322 322 321 319 319 320 322 322 323 323 324 325 325 325 325 326 328 331
318 316 317 317 315 315 314 315 315 314 314 313 312 312 312 312 315 318 321 320 319 318 318 320 323 322 322 321 323 324 324 323 323 323 323 323 324 323 323 324 324 324 325 326 327 326 327 328 331
316 320 318 318 314 315 314 316 315 314 315 314 312 313 312 312 314 318 321 321 320 318 318 321 323 323 324 324 324 325 325 325 324 324 324 324 324 324 325 325 324 325 325 327 327 328 327 329 331
320 319 318 318 317 315 314 314 314 316 315 315 312 313 313 313 314 318 321 321 321 319 318 318 322 322 322 324 324 325 325 325 325 324 324 324 324 325 325 326 326 326 327 327 327 327 328 330 331
319 319 319 320 318 316 315 315 316 315 314 314 312 312 312 313 314 318 321 321 321 321 319 319 323 323 323 323 324 325 325 325 325 324 324 323 323 325 325 323 322 327 327 328 327 328 329 330 330
317 318 318 317 317 315 317 316 314 315 315 314 312 312 312 313 313 316 320 322 321 319 321 317 321 321 322 324 324 325 326 325 325 324 325 324 325 325 327 326 326 327 328 328 327 329 329 329 329
319 319 318 318 317 315 315 315 315 315 315 315 312 312 312 312 313 314 317 319 321 318 318 320 316 316 317 325 325 325 326 326 325 322 326 327 324 325 327 327 328 328 328 329 327 329 330 329 329
320 318 319 319 318 318 315 317 315 316 316 317 312 311 312 311 313 313 315 316 321 321 318 317 317 318 319 325 326 326 326 326 326 326 326 327 327 327 327 327 328 327 328 329 328 329 329 329 328
320 319 318 318 317 316 317 315 316 319 320 317 315 311 311 310 312 314 314 316 321 322 319 319 320 319 320 326 325 325 325 326 327 325 326 325 326 326 327 327 327 327 327 327 328 329 329 329 328
319 318 315 315 314 316 315 316 316 317 319 318 317 312 311 310 311 313 316 316 318 323 320 320 323 319 322 325 324 321 321 321 326 327 326 324 325 325 326 327 326 328 328 328 328 328 328 328 328
316 314 317 317 318 320 317 318 317 318 317 318 319 313 311 311 311 313 313 314 316 322 320 320 323 320 320 324 325 321 321 322 323 325 327 327 328 327 327 327 328 327 328 328 327 327 327 327 328
314 314 316 318 316 315 319 322 320 319 321 320 318 314 311 311 311 313 313 315 317 319 323 321 321 321 318 322 324 319 319 320 320 323 329 329 328 328 327 326 326 328 329 328 328 328 328 327 327
317 315 314 315 317 319 319 321 323 325 324 320 315 313 312 311 310 313 314 315 317 318 322 323 323 321 319 319 320 320 319 318 319 320 326 328 328 328 328 328 329 329 330 327 328 328 328 328 327
317 315 317 313 319 320 319 323 325 322 325 323 318 313 312 311 310 312 313 315 317 318 319 322 323 320 319 319 318 319 319 318 318 319 321 327 326 324 322 326 328 329 330 330 328 329 329 329 327
318 319 319 314 315 317 318 322 320 325 327 327 321 314 312 312 312 312 313 316 317 317 319 320 324 321 319 318 319 319 319 317 318 320 319 322 322 322 322 324 326 327 328 328 328 328 328 328 327
318 318 320 319 319 320 319 321 321 326 328 328 324 314 312 312 312 312 313 315 316 316 318 320 323 319 317 317 318 319 319 318 317 320 319 321 321 320 320 323 326 326 327 327 327 326 324 324 326

GFSSGP_925_thetae_009.txt.gz
Theta_e
326 328 332 334 339 326 330 328 320 322 321 320 317 318 319 319 324 319 321 325 323 322 323 329 329 329 328 325 325 328 325 325 327 327 326 324 322 323 326 329 331 332 332 333 331 332 334 335 336
324 329 330 332 336 332 330 321 323 323 320 318 317 318 319 319 321 322 322 324 322 321 320 320 326 327 322 322 330 329 328 330 329 328 327 325 324 324 325 327 329 329 330 332 331 331 333 334 336
330 332 336 336 334 331 331 322 321 320 318 318 319 319 320 321 321 321 321 320 319 316 315 315 318 318 320 327 328 326 326 331 330 329 328 327 325 324 325 327 328 329 329 329 331 330 331 333 335
331 332 329 336 335 332 330 329 318 319 317 316 317 320 321 320 321 321 320 318 317 315 314 315 319 324 329 334 333 331 332 330 330 329 328 328 327 325 325 326 326 327 328 329 328 332 331 332 333
327 329 334 335 334 329 321 318 317 320 318 317 318 320 322 320 319 319 316 316 316 315 314 316 318 323 327 331 334 332 328 327 326 326 327 326 326 326 325 325 326 326 326 327 328 330 332 331 332
331 330 335 335 334 330 323 318 317 319 318 318 319 321 322 319 318 316 317 317 316 316 317 317 319 323 326 333 329 328 328 327 327 326 325 325 325 326 326 325 325 325 325 325 327 328 329 330 330
331 332 332 333 334 328 322 316 317 319 318 318 320 321 321 319 315 315 314 313 313 314 316 318 318 317 318 327 328 326 321 325 325 325 325 324 325 326 325 325 325 327 326 325 325 330 327 331 330
329 331 333 330 330 330 320 317 316 318 319 318 320 321 321 318 313 313 315 315 315 317 319 320 319 317 316 318 318 320 321 321 323 324 325 325 324 325 326 325 324 325 326 325 325 330 329 330 331
324 330 329 329 329 327 317 318 316 317 319 318 318 318 316 314 313 315 317 318 318 319 320 321 321 319 318 320 321 320 320 320 320 321 320 320 322 322 322 324 325 324 325 326 326 329 329 329 331
327 329 329 328 325 324 319 318 318 319 319 319 318 315 313 314 315 317 318 318 320 320 320 321 319 319 320 321 320 319 319 319 318 320 319 319 320 319 316 319 321 323 325 325 326 329 330 329 332
325 325 324 324 325 321 320 316 317 319 320 320 320 317 316 316 317 317 318 319 321 320 319 321 319 319 321 321 321 321 320 318 318 319 318 318 319 318 317 320 322 324 324 324 327 328 329 331 331
324 325 325 325 321 318 318 317 318 319 320 319 318 317 316 317 317 318 319 320 321 320 319 320 319 320 321 321 321 322 321 320 321 319 319 318 319 319 317 319 323 324 324 324 327 329 331 332 332
324 324 321 320 317 317 316 318 319 319 319 317 317 316 317 318 317 318 320 322 321 320 320 320 319 321 321 321 321 322 322 321 321 320 320 320 319 320 319 320 322 322 323 326 327 329 330 331 331
324 322 319 317 317 317 318 318 318 319 319 317 317 317 317 317 317 319 321 322 321 320 321 319 321 321 322 321 322 322 322 321 321 321 320 320 321 321 321 322 323 324 325 327 328 328 329 330 332
320 321 320 319 318 318 317 319 319 320 319 319 317 317 316 317 317 319 321 322 321 321 320 320 322 322 322 321 322 323 323 322 322 322 320 320 321 321 321 324 325 323 323 326 327 327 326 330 332
320 320 322 320 318 317 318 322 321 319 319 320 317 316 317 317 317 319 322 322 321 320 321 320 322 323 324 324 323 324 324 324 324 323 323 322 322 323 323 325 326 323 325 326 327 327 328 330 330
322 326 325 322 318 317 318 321 320 318 319 321 318 317 317 317 318 319 322 322 322 319 320 319 321 323 322 323 324 324 325 325 325 324 324 325 325 325 324 326 324 326 325 328 328 329 328 330 328
324 323 321 322 321 318 319 318 321 319 319 320 319 317 318 318 319 320 322 322 322 320 318 319 322 323 323 323 324 325 326 325 324 324 324 325 325 325 326 325 325 325 327 329 329 329 329 330 327
323 323 324 322 321 320 321 322 321 321 319 320 319 318 318 319 318 320 322 323 323 323 322 318 322 320 319 325 325 325 326 325 326 324 322 324 324 325 327 327 328 328 331 330 330 329 329 328 330
322 323 324 323 320 320 322 322 322 321 321 321 321 319 319 319 318 320 322 323 324 322 319 321 317 316 317 324 325 324 324 324 324 324 325 324 324 325 326 327 327 328 328 329 330 329 330 329 330
323 324 324 324 321 319 320 322 323 322 319 319 320 320 319 319 319 321 322 323 323 322 320 321 316 316 319 325 326 325 326 326 325 326 325 325 326 326 326 326 327 328 327 328 329 327 329 329 330
326 323 323 323 323 325 320 325 323 323 324 322 321 319 319 319 319 321 322 321 324 323 319 317 320 318 323 325 327 326 328 328 326 326 326 327 327 326 325 328 328 328 328 329 328 326 328 329 329
325 322 323 323 324 322 322 322 322 322 324 325 326 321 319 318 319 321 321 320 322 323 322 320 322 319 324 325 324 325 326 328 327 327 327 327 327 326 327 328 328 328 328 327 328 327 328 329 331
323 322 321 321 322 325 323 322 322 323 324 325 325 322 319 318 318 320 320 319 321 324 323 321 324 319 323 324 324 323 323 326 326 327 325 325 326 326 327 327 327 328 328 326 328 329 329 329 331
323 325 326 327 327 325 322 322 323 324 325 323 324 324 319 318 318 321 321 319 320 323 323 323 324 322 320 323 325 321 320 323 326 326 327 325 326 326 327 327 328 327 326 323 325 329 329 328 328
324 326 325 328 325 324 322 324 322 325 326 326 324 323 319 318 318 321 321 320 320 322 324 323 323 323 318 322 323 319 319 321 323 328 328 328 327 326 327 327 328 328 327 327 328 329 328 328 327
321 323 323 325 322 323 323 325 326 328 328 326 322 319 318 318 319 321 321 320 320 321 325 325 324 323 319 319 320 320 318 318 320 327 328 327 325 328 327 327 328 328 328 327 327 327 327 328 327
323 321 323 321 325 327 323 326 325 326 327 330 324 322 319 318 319 320 321 320 320 321 322 325 325 323 321 319 318 319 318 318 319 324 327 326 325 324 324 327 328 329 328 328 327 328 328 327 328
321 323 323 323 322 326 327 325 327 328 333 335 331 324 320 319 319 320 321 320 320 321 321 323 325 322 322 319 319 319 317 317 319 319 322 322 321 321 322 324 325 328 329 328 327 329 329 330 329
324 324 325 325 327 324 325 325 324 331 333 334 331 323 320 319 319 319 320 320 320 320 321 322 325 323 321 319 319 319 319 316 320 319 321 320 320 322 324 325 325 326 328 328 328 328 328 329 328

GFSSGP_925_thetae_015.txt.gz
Theta_e
319 328 339 340 343 337 336 337 333 331 331 329 328 327 325 324 323 324 326 327 326 326 329 332 328 326 328 331 332 331 333 339 338 335 331 330 329 326 326 326 326 328 330 332 335 334 333 334 336
333 337 337 340 340 339 337 334 332 331 330 328 327 325 324 324 323 323 324 327 326 326 329 328 329 322 317 325 331 332 338 338 338 336 333 331 331 330 329 328 327 327 328 330 333 335 334 333 335
335 335 338 341 339 338 336 332 331 331 328 327 327 325 324 326 324 322 326 327 326 326 325 325 323 316 318 324 328 331 329 325 329 331 331 333 332 331 331 330 328 328 327 329 330 332 335 333 334
333 336 336 335 335 336 334 331 330 329 328 326 326 325 326 325 325 324 326 325 324 323 322 323 321 320 317 324 339 337 329 328 329 331 330 331 331 331 331 331 330 328 328 328 329 330 332 334 333
333 334 336 337 336 334 333 331 329 328 327 326 325 325 326 326 326 325 324 323 322 322 322 322 323 321 319 322 337 339 335 333 332 331 330 331 330 330 330 330 330 329 328 327 328 331 331 332 333
333 333 334 336 333 335 333 330 328 327 327 326 325 325 325 327 326 325 324 324 323 323 324 322 323 321 320 318 322 326 329 329 328 329 330 330 329 329 328 328 329 330 329 327 328 327 330 331 331
334 334 335 334 334 333 332 330 327 327 327 326 325 324 326 327 324 325 323 322 322 322 322 322 322 322 321 321 322 321 320 319 319 322 325 327 327 327 327 327 329 329 329 327 327 328 327 330 331
331 334 334 333 333 333 332 330 330 327 327 325 324 324 324 327 325 324 323 322 322 322 322 322 321 321 324 326 326 325 324 322 322 321 325 325 326 327 325 327 328 329 329 327 325 326 326 327 332
331 332 332 331 331 332 331 331 330 328 327 325 324 324 325 325 324 323 323 322 323 322 322 321 321 325 328 327 326 325 327 326 325 324 325 324 325 325 326 327 327 328 329 327 328 329 327 327 332
331 331 329 329 329 330 330 330 330 329 327 326 325 324 323 323 323 323 324 323 322 322 323 320 324 329 329 326 326 326 326 326 326 324 324 325 324 325 325 325 326 326 328 328 325 328 327 328 327
330 330 327 327 326 328 329 328 328 328 327 327 325 324 325 324 324 324 323 322 324 323 321 322 328 329 329 327 326 325 326 326 325 326 323 324 325 324 324 324 323 324 326 328 327 327 325 322 326
331 329 328 326 326 329 328 328 327 326 326 325 324 323 325 325 325 325 324 324 324 323 322 327 328 329 330 328 326 326 327 327 326 325 325 325 325 323 324 324 324 323 325 327 328 327 323 323 327
330 329 327 326 326 329 327 327 327 326 325 324 323 323 323 325 325 325 324 324 325 323 324 328 328 329 329 328 328 327 328 327 326 326 325 325 325 325 325 324 324 322 325 326 328 328 324 325 330
329 329 327 326 327 328 326 327 325 326 324 323 324 323 323 324 325 325 324 325 325 322 326 327 328 328 328 328 329 327 327 327 327 325 325 326 326 327 327 326 325 324 325 327 327 328 327 327 330
328 328 327 327 327 328 327 326 327 326 326 325 324 325 325 325 324 325 325 326 325 322 326 327 327 327 328 327 329 329 327 328 328 326 327 326 327 328 328 328 327 326 324 325 326 327 327 329 331
327 328 330 328 328 327 326 328 328 327 326 326 325 326 325 325 325 324 324 326 324 323 325 326 327 327 328 329 329 330 329 329 329 328 327 327 327 328 329 329 329 328 327 327 327 328 329 330 332
329 329 328 328 328 328 327 328 328 327 326 326 326 326 326 325 326 324 324 326 325 323 324 326 328 328 329 329 331 330 331 331 331 331 326 329 328 328 329 329 330 329 328 328 327 327 328 330 331
331 330 329 329 330 330 328 328 328 328 326 325 326 327 327 326 326 325 325 326 325 323 325 328 328 329 329 331 332 330 331 331 329 329 325 326 329 329 329 331 329 331 330 331 330 328 329 330 330
329 330 329 330 329 329 329 329 329 328 327 326 325 327 328 328 326 325 326 326 325 324 325 328 328 329 330 331 331 330 330 329 330 327 328 328 328 329 330 331 331 330 331 331 331 329 330 330 331
330 330 329 329 329 329 330 329 328 326 326 326 326 327 328 329 327 326 326 327 326 324 323 328 329 329 332 334 333 332 331 330 331 330 329 329 329 330 331 331 330 330 330 331 331 331 331 332 331
330 330 329 331 330 330 330 329 328 327 327 326 325 326 328 330 328 327 327 327 327 324 324 327 329 332 333 333 333 334 333 332 332 329 329 330 329 329 331 331 331 330 329 330 331 331 331 331 332
330 328 328 329 330 331 328 330 328 327 326 325 326 327 328 330 329 328 328 328 327 324 325 327 330 332 332 332 331 333 334 331 332 332 327 329 331 331 331 331 330 332 332 332 331 331 330 329 332
329 328 328 328 329 330 328 329 328 327 326 325 326 326 330 330 329 328 328 328 326 323 326 327 330 330 333 332 330 332 331 332 333 332 326 328 330 330 331 331 332 332 332 332 333 331 330 330 331
328 327 327 328 329 330 328 329 328 327 325 325 326 328 330 330 329 328 327 327 324 323 325 327 329 329 332 332 330 331 332 330 329 331 328 329 330 332 331 332 332 333 333 333 332 332 331 331 333
328 328 330 331 332 331 328 328 328 326 325 325 326 328 332 330 329 328 328 327 324 324 324 327 328 327 329 330 329 329 330 330 330 331 328 328 330 330 331 331 332 332 331 332 332 331 332 333 334
327 328 328 331 332 331 329 329 328 326 325 326 329 333 333 330 328 328 328 326 323 324 323 325 326 326 328 328 329 328 331 333 330 331 330 329 330 329 330 330 331 332 331 331 332 332 333 334 332
328 328 327 329 328 329 330 329 328 325 324 327 331 332 332 330 328 328 328 326 323 324 324 325 325 326 326 328 329 328 330 331 330 329 328 329 331 331 331 331 330 330 331 333 334 333 334 333 332
327 327 328 328 332 333 330 329 328 326 326 330 333 333 331 329 328 328 328 326 322 324 325 325 325 324 325 326 326 326 329 331 332 331 329 325 326 328 329 331 330 331 332 332 333 332 333 332 331
326 326 328 329 329 331 332 330 329 327 326 328 333 333 331 329 328 328 328 326 323 323 325 326 326 323 325 325 326 325 327 329 329 330 330 331 330 326 327 327 328 328 331 332 331 331 331 332 329
327 326 328 330 331 329 331 331 328 327 327 328 332 333 330 329 328 328 328 326 323 323 325 326 326 322 322 324 325 324 326 328 329 330 331 331 331 330 324 327 327 328 331 331 331 329 330 330 328

GFSSGP_925_thetae_021.txt.gz
Theta_e
318 317 318 331 338 339 342 340 335 328 328 325 324 324 321 320 323 332 326 328 334 334 330 328 326 324 324 323 327 332 334 335 337 338 337 335 331 326 326 330 329 328 327 328 328 330 336 336 334
319 322 326 337 341 344 342 336 335 328 326 324 324 324 322 323 325 326 326 327 328 329 330 331 331 328 322 320 325 331 336 336 336 339 338 336 333 332 331 332 332 331 330 329 329 328 332 336 336
324 328 336 334 338 342 340 337 334 326 325 326 325 324 326 325 324 327 327 325 328 328 328 330 329 326 325 329 333 335 335 337 337 338 336 334 335 334 333 333 333 333 332 331 330 329 328 333 336
331 334 332 333 335 333 335 334 328 327 326 325 324 325 325 325 324 327 326 325 325 327 331 328 325 322 320 320 321 330 335 336 336 337 333 332 332 332 332 333 333 333 333 332 331 330 329 328 332
334 330 332 335 336 335 333 333 329 326 324 324 323 326 325 325 325 325 324 324 324 325 325 324 323 323 322 322 320 317 320 329 336 335 333 332 332 331 331 332 332 332 332 332 332 330 330 330 332
331 328 331 333 332 332 332 331 331 327 326 323 323 327 326 324 325 325 325 323 324 325 324 323 323 322 323 322 322 322 322 320 320 321 326 328 331 331 331 331 331 330 330 330 331 332 329 331 332
331 331 332 332 333 331 332 331 331 330 326 324 324 325 326 324 325 324 324 324 324 323 322 322 323 324 323 324 324 323 325 326 325 325 324 322 326 328 328 329 328 328 329 329 330 331 329 327 330
330 329 331 331 331 331 329 331 330 328 327 324 324 324 327 324 324 324 324 324 323 322 322 323 324 325 326 329 329 328 327 326 326 326 325 325 325 324 327 327 327 328 329 329 330 331 329 327 327
331 330 331 331 331 330 324 326 327 327 329 328 323 323 326 326 325 324 323 323 323 323 323 323 322 323 326 328 329 328 326 326 327 327 327 327 325 324 325 325 327 328 329 329 330 330 330 327 327
330 329 331 330 329 329 325 324 326 327 326 328 325 325 326 326 325 323 322 322 322 324 323 322 323 325 327 328 329 328 328 327 328 327 327 325 324 323 325 325 325 327 328 329 330 330 329 329 327
329 329 328 328 329 328 326 323 323 326 327 326 324 324 324 324 323 322 322 323 325 324 324 325 327 329 329 330 330 329 327 326 327 327 325 325 324 323 324 325 324 323 325 325 327 329 328 327 327
330 328 329 328 329 329 327 326 325 326 326 324 323 324 322 322 321 321 322 324 325 323 325 327 328 329 330 331 330 327 328 328 326 326 326 327 325 324 324 325 324 324 325 325 325 326 328 327 327
330 329 329 330 329 327 326 326 326 325 326 324 323 324 323 321 320 323 324 325 325 324 325 327 328 328 330 329 328 327 327 327 327 327 326 327 326 325 324 325 325 324 324 324 325 326 327 325 327
330 329 329 330 328 327 327 327 324 325 326 323 323 320 320 320 322 324 325 325 325 323 326 327 327 328 328 328 328 328 329 329 328 326 326 327 327 326 324 325 325 324 324 324 325 326 326 326 326
325 326 327 328 327 326 327 325 325 325 325 325 324 321 321 320 323 323 325 325 325 323 325 327 326 327 328 329 330 330 330 329 328 327 327 328 327 325 325 325 325 325 323 323 324 325 326 326 327
323 324 327 326 326 326 325 326 325 326 325 326 325 324 323 321 321 324 325 326 325 324 326 326 326 328 330 330 328 330 330 330 330 329 328 326 327 327 327 326 326 326 323 323 324 325 326 327 328
322 324 326 327 326 327 326 327 326 326 325 325 325 324 324 322 322 327 327 327 326 324 324 326 328 328 331 329 331 330 332 330 329 329 329 326 324 324 327 327 325 326 323 324 324 327 327 328 328
323 325 326 327 327 326 327 326 327 326 326 325 326 325 325 325 324 327 327 327 325 324 324 325 328 329 330 332 331 331 331 330 329 329 329 327 326 325 328 327 326 326 324 324 325 326 327 327 326
323 325 327 327 327 326 329 329 330 329 327 326 326 326 324 324 325 326 327 327 325 324 324 325 329 330 331 332 333 332 331 330 327 328 328 328 328 326 328 328 327 325 325 324 324 326 326 326 328
323 323 324 326 327 330 330 329 330 329 327 326 326 325 325 326 326 326 328 327 325 325 324 327 329 331 334 332 333 332 331 331 329 329 329 330 328 328 329 328 325 326 324 325 326 327 324 329 329
325 324 324 326 327 328 328 330 330 330 328 327 326 324 327 326 326 326 328 327 326 326 325 325 331 332 334 331 331 330 330 330 329 328 328 329 328 329 328 328 327 327 325 324 326 326 327 329 329
325 325 326 327 328 329 329 329 328 327 326 326 326 322 326 326 327 327 327 328 327 327 323 329 331 333 333 331 332 330 328 330 329 330 327 328 329 330 330 330 329 327 327 324 326 326 327 328 329
325 326 326 327 327 327 327 326 326 327 328 326 324 324 327 327 326 327 327 329 327 326 325 328 331 332 333 331 331 331 330 329 329 327 327 329 329 328 330 329 330 327 327 327 327 327 328 328 329
324 325 325 326 328 330 328 328 327 327 328 327 328 329 329 327 326 327 328 329 329 326 327 329 331 331 332 330 330 331 330 328 328 329 329 329 330 330 330 331 329 328 325 327 328 327 329 329 329
324 324 327 329 329 329 327 327 325 326 326 325 327 329 328 328 327 327 328 327 326 325 327 328 330 330 330 330 330 330 329 328 327 328 330 328 330 331 330 330 330 329 327 328 328 328 329 328 329
318 324 326 331 332 328 327 330 329 328 326 324 330 329 328 327 327 326 327 326 325 325 328 328 330 328 329 330 330 331 329 327 328 330 330 330 330 331 331 330 330 330 329 328 329 329 329 329 329
322 325 323 328 329 328 328 331 329 326 324 325 331 330 328 327 326 326 326 324 325 326 327 326 330 327 329 330 330 331 329 327 326 328 329 329 330 330 330 329 330 330 329 329 328 329 329 329 331
320 324 327 326 329 330 328 330 333 327 324 326 331 332 329 327 326 325 326 324 325 325 325 327 328 327 329 329 329 331 330 330 331 328 326 329 329 328 329 330 330 329 329 329 328 329 329 330 330
320 323 326 324 324 328 329 328 327 326 324 331 331 331 328 326 326 325 325 325 326 325 324 326 326 327 328 327 327 331 329 330 330 329 326 329 329 330 330 330 329 328 329 330 329 330 329 328 328
321 322 326 328 330 325 325 329 326 326 331 331 332 330 326 324 324 324 324 323 325 325 325 326 326 327 326 327 326 330 330 331 329 330 328 326 327 328 329 330 330 329 330 330 329 329 327 327 327

GFSSGP_925_thetae_024.txt.gz
Theta_e
311 314 318 330 338 336 342 340 335 327 326 324 323 320 320 320 322 322 334 330 335 329 324 322 322 322 323 324 327 328 329 331 332 336 336 335 332 330 330 330 329 328 328 328 328 328 330 336 334
314 318 325 334 341 343 341 336 334 327 325 322 320 318 320 323 326 325 331 333 334 332 326 326 326 325 325 325 327 329 333 334 337 339 338 337 335 333 332 332 332 331 331 330 330 329 328 332 336
319 325 333 337 336 340 338 334 333 328 324 323 323 322 323 323 326 324 327 329 330 330 329 328 328 327 327 325 327 331 332 333 339 338 337 335 335 334 333 332 333 333 333 333 331 331 330 328 333
327 332 333 332 333 332 334 332 330 326 324 323 322 325 323 324 326 326 327 329 328 328 329 330 329 327 323 322 322 326 334 337 339 339 337 336 334 333 333 334 333 333 332 332 332 332 331 330 329
332 327 332 333 334 332 331 331 329 328 325 322 323 326 323 324 326 326 327 328 329 330 332 331 325 322 322 321 320 320 319 320 327 332 336 334 332 331 332 332 331 331 331 332 332 333 331 331 328
330 324 329 330 330 331 329 328 330 328 325 321 324 323 322 325 326 325 324 326 325 329 328 324 323 322 322 322 321 322 322 323 323 321 325 329 330 333 331 331 330 330 330 331 332 332 333 330 330
329 329 331 332 333 331 331 330 328 329 329 323 323 324 324 322 325 324 323 324 324 324 324 323 323 322 323 322 322 324 325 326 326 325 324 324 325 328 328 329 330 330 330 331 330 331 332 331 330
326 326 330 330 331 331 328 325 326 329 329 323 324 327 325 322 324 324 323 323 323 323 323 322 323 323 323 325 327 328 327 326 326 325 325 325 325 324 327 328 328 328 328 329 329 329 330 330 328
328 331 333 331 330 330 327 324 324 326 327 325 323 324 325 324 323 323 323 323 322 322 322 323 323 324 327 328 328 329 329 328 327 326 327 326 326 325 323 324 326 328 329 329 329 330 329 329 328
329 330 334 332 329 327 326 324 322 324 323 325 326 325 325 323 322 320 321 321 321 321 322 323 324 326 328 328 328 329 328 328 331 329 327 327 326 324 323 324 326 326 327 329 329 330 330 329 328
328 331 331 329 327 327 328 326 324 323 323 324 324 325 323 322 321 320 321 320 321 322 322 323 325 328 328 326 329 329 328 327 327 328 327 326 324 325 323 323 324 324 323 325 326 327 330 329 329
330 330 330 329 328 327 327 327 326 324 323 323 323 324 323 322 320 319 319 321 322 323 324 327 328 328 326 327 327 326 326 327 328 327 326 326 326 326 324 324 324 324 323 324 324 325 327 328 329
330 330 330 329 327 327 326 326 325 325 323 322 322 323 323 322 320 320 320 322 323 325 327 327 327 326 327 327 327 328 327 327 327 327 327 327 326 326 326 324 325 324 323 323 324 325 326 328 327
325 328 329 329 328 327 327 327 325 326 324 321 323 322 321 321 320 319 321 322 324 325 327 327 326 326 327 327 328 328 329 329 329 328 327 326 326 328 326 325 324 324 323 324 324 324 325 327 326
320 321 323 325 325 325 326 325 326 324 323 321 320 321 320 320 320 320 323 322 323 325 327 327 326 327 327 329 329 328 329 329 329 329 328 327 328 327 326 324 325 325 325 323 324 324 324 326 325
320 319 321 322 323 324 323 327 325 323 323 323 322 321 319 319 320 321 323 323 323 326 326 326 326 327 328 329 329 330 330 330 330 329 329 329 327 327 326 326 326 325 325 324 323 324 325 326 326
318 321 321 322 322 324 324 326 325 324 323 323 322 323 321 319 318 321 323 323 323 326 326 326 327 327 329 329 330 330 330 330 329 328 329 328 327 325 325 325 326 325 325 323 323 325 325 326 326
322 320 322 323 324 324 324 324 324 325 324 323 322 322 322 321 320 323 324 323 324 324 325 326 327 328 329 330 331 330 331 331 328 327 328 328 327 326 325 326 326 325 323 323 324 324 327 327 326
322 321 322 323 323 325 325 326 326 326 323 322 322 322 323 322 323 325 324 324 324 324 324 325 328 329 330 332 332 332 331 331 329 328 328 328 328 328 325 327 326 325 324 323 324 325 326 326 326
318 321 322 322 323 323 324 326 326 327 326 324 325 323 322 324 325 325 324 323 323 324 324 328 329 330 333 332 330 331 331 330 330 328 328 329 327 326 328 327 327 325 325 323 324 324 326 326 327
318 320 323 323 322 322 324 327 328 328 327 326 325 323 324 324 325 326 324 323 323 323 325 328 330 331 333 331 331 329 328 329 329 328 327 328 326 327 328 327 325 325 325 324 324 325 324 328 327
321 320 322 324 324 325 325 328 325 326 325 324 323 322 324 324 324 326 323 322 323 325 325 329 330 332 333 331 330 330 328 328 328 329 327 327 328 329 327 328 327 326 325 323 325 326 324 327 327
321 321 322 325 325 324 325 325 324 324 325 324 322 323 323 323 324 326 324 323 326 323 327 330 330 332 332 331 331 330 330 329 328 328 328 328 328 328 329 328 328 327 326 323 324 326 326 326 326
321 322 322 323 324 326 325 325 327 324 326 325 325 323 324 324 324 325 325 325 325 324 329 330 330 332 332 329 330 329 327 328 328 328 329 328 329 329 329 328 328 327 326 324 325 325 326 327 328
320 320 323 324 326 328 324 327 327 325 325 323 327 327 325 325 326 326 326 324 324 326 328 330 330 330 330 330 329 329 328 327 328 329 329 329 329 330 330 329 328 325 326 326 326 327 326 327 327
316 319 324 326 328 327 325 328 326 323 324 324 327 326 326 326 325 326 325 324 323 325 328 330 329 329 329 329 329 328 327 326 327 330 330 329 330 330 329 330 329 328 326 327 327 327 327 328 327
315 316 317 322 326 325 325 326 327 324 329 328 327 327 327 325 325 326 323 322 322 326 327 329 329 328 329 329 329 329 328 325 326 326 329 329 330 330 329 330 329 328 328 327 327 328 328 328 329
315 318 320 321 326 328 327 328 328 324 330 329 329 327 326 324 324 325 324 321 322 326 327 327 329 327 329 329 329 330 329 330 329 327 329 329 329 329 329 330 330 329 328 328 328 328 328 329 330
314 315 317 321 322 326 326 327 322 322 323 331 328 327 325 325 324 325 323 322 323 326 324 327 328 328 328 328 329 330 330 330 329 326 329 328 329 329 329 329 328 329 329 328 328 328 329 329 328
315 315 316 323 325 323 324 325 323 323 325 329 329 327 325 324 324 324 321 321 322 323 324 327 326 327 328 327 329 329 330 329 329 326 327 329 329 329 329 328 328 329 329 328 329 329 329 328 327

GFSSGP_925_thetae_027.txt.gz
Theta_e
313 313 320 330 337 335 341 339 334 336 327 323 322 320 321 320 321 321 331 337 336 330 329 325 323 319 320 322 323 324 326 327 327 328 328 330 331 331 330 330 329 328 328 328 329 328 328 332 333
313 318 326 332 340 342 339 336 336 329 324 319 319 319 321 322 326 326 334 337 336 335 328 323 321 321 322 323 324 327 328 330 335 336 336 335 334 333 332 331 332 331 331 331 330 330 329 328 333
317 326 333 337 336 340 337 334 333 331 325 321 322 322 321 323 325 327 328 332 336 333 326 322 322 322 324 326 326 327 329 332 338 338 338 338 337 334 333 332 332 332 332 333 333 332 332 330 329
324 331 331 334 336 332 335 331 331 328 324 321 321 324 322 324 325 326 327 331 333 330 327 324 325 326 326 325 322 322 326 333 338 339 338 338 336 335 334 333 332 332 332 332 333 333 332 332 330
331 326 333 333 333 331 329 329 327 329 325 321 322 324 323 323 326 326 328 331 329 328 327 327 327 327 326 322 322 321 322 323 333 336 337 337 336 334 334 333 333 333 331 331 332 331 334 332 332
328 323 329 331 330 330 328 326 327 326 326 323 324 322 321 323 325 327 328 328 327 326 328 329 330 327 324 322 323 322 321 323 323 322 323 326 331 333 332 333 332 331 331 331 331 332 333 333 331
328 328 331 330 333 330 329 326 327 325 326 321 321 322 322 322 325 326 327 327 327 328 328 331 329 325 322 322 322 321 322 323 325 324 324 324 324 327 329 330 329 330 331 331 331 331 331 332 331
326 326 331 329 331 330 327 324 323 325 326 322 324 325 323 321 324 324 327 328 327 328 330 329 324 324 322 323 322 324 325 325 325 325 325 325 325 326 328 329 329 329 328 328 329 330 331 330 331
324 329 331 330 330 329 326 327 326 323 324 324 322 323 323 324 323 322 325 327 328 330 329 324 324 323 325 323 326 327 328 328 325 326 328 326 326 326 325 323 324 327 328 329 329 329 330 329 330
328 329 331 329 328 328 326 325 324 323 323 323 324 324 323 323 321 319 320 320 323 324 324 324 325 325 325 325 325 326 328 330 331 330 328 327 327 326 324 323 323 327 327 327 329 329 330 330 330
326 330 328 329 328 327 326 327 327 324 322 322 322 323 321 320 320 320 320 320 320 321 321 323 324 324 324 326 326 328 327 327 327 327 330 327 326 325 324 324 323 324 325 324 324 327 327 330 330
329 328 329 329 329 329 328 326 327 327 326 326 321 323 321 320 320 319 319 320 320 320 321 323 324 324 327 326 327 327 326 326 326 327 327 327 326 326 325 325 323 324 323 323 323 324 325 328 329
329 328 327 328 328 328 328 327 327 327 326 323 321 323 322 321 320 320 320 320 320 320 323 324 325 327 326 327 327 327 327 327 327 327 327 327 326 326 326 326 325 324 324 323 323 324 324 327 328
322 324 325 327 327 328 328 328 326 326 325 322 320 323 322 321 320 319 318 319 320 321 323 326 327 327 327 327 327 328 328 328 328 328 328 327 327 326 326 327 326 324 324 324 323 323 324 326 327
315 317 318 319 322 324 326 324 325 325 323 321 319 321 322 321 321 319 319 319 320 323 325 327 327 327 328 327 328 328 328 329 329 329 329 329 328 327 327 327 326 324 324 325 323 323 324 325 326
317 317 319 319 321 321 322 324 324 324 322 322 320 320 320 320 320 320 319 320 322 324 327 327 326 327 328 328 329 329 330 330 329 329 328 328 329 328 327 326 325 325 325 325 325 323 324 325 326
315 317 316 317 319 320 322 324 323 323 322 322 321 319 320 319 318 318 320 321 322 325 326 326 327 327 328 329 329 330 329 330 330 328 327 328 328 328 326 326 326 326 325 325 324 323 324 325 326
316 317 318 318 320 319 321 322 323 322 322 322 322 321 321 319 317 318 321 321 322 326 326 326 326 327 328 329 330 329 329 330 330 328 327 328 328 327 326 325 324 326 325 323 323 323 325 325 325
316 319 320 320 321 322 322 322 322 323 322 322 320 319 319 320 320 321 320 321 325 325 326 326 327 328 329 331 330 331 330 330 330 329 328 328 328 327 327 325 326 326 325 322 323 324 326 326 326
319 319 320 321 321 321 321 321 322 322 322 323 324 321 320 323 324 322 320 322 323 325 325 327 328 329 332 330 329 330 329 330 329 329 328 326 327 328 325 326 327 326 325 323 324 325 326 326 326
322 320 319 320 321 321 320 322 321 323 324 324 323 322 322 322 324 322 321 320 323 324 325 328 328 330 332 330 330 329 328 328 328 328 328 327 326 326 328 328 327 326 324 323 323 324 325 326 327
317 317 318 319 321 323 321 325 323 323 323 323 323 320 319 322 324 323 321 319 322 324 326 327 329 332 332 330 330 329 328 327 328 328 327 327 328 328 327 327 326 325 324 323 323 324 325 325 327
317 318 319 319 321 322 324 324 322 322 324 322 321 319 322 321 324 323 321 320 322 324 326 329 330 332 332 331 330 329 329 328 327 327 328 328 327 328 328 328 327 326 325 323 324 325 324 326 327
317 317 319 319 320 324 323 323 323 323 323 323 323 321 322 322 323 321 321 322 323 324 328 329 330 332 331 329 329 327 326 327 327 328 328 328 329 328 327 328 328 327 326 323 324 326 324 326 326
314 312 316 321 323 326 322 323 325 323 322 322 322 323 323 323 324 323 322 321 320 325 329 329 330 330 330 329 328 326 327 326 328 329 329 329 328 329 329 328 328 326 326 323 324 325 325 326 326
313 314 320 324 326 325 323 326 325 322 322 322 322 323 323 324 324 323 322 322 321 327 328 329 329 329 329 329 328 326 326 326 327 327 329 329 330 329 329 329 328 325 326 325 324 325 326 326 327
313 317 317 320 323 323 323 323 323 324 326 325 326 325 324 324 324 324 322 321 322 325 328 329 328 328 329 329 329 327 327 326 325 327 328 329 329 329 329 329 328 326 327 327 327 327 326 327 327
312 313 317 315 323 327 325 326 326 324 327 327 327 325 324 323 323 323 323 320 322 325 327 328 328 327 329 329 329 329 329 330 328 327 328 328 329 329 329 329 329 328 327 327 327 327 327 327 327
313 314 313 314 317 323 324 324 322 323 326 327 325 324 324 323 324 324 323 320 322 324 326 327 328 327 328 328 329 329 329 329 327 327 328 328 329 329 329 329 329 329 328 327 327 328 328 327 328
315 314 313 317 319 318 321 323 321 321 324 326 325 324 323 322 323 323 322 318 320 323 324 325 328 327 328 328 328 329 330 328 327 326 329 328 329 329 328 328 328 329 328 328 328 328 328 328 327

GFSSGP_925_thetae_030.txt.gz
Theta_e
316 313 324 329 337 334 340 339 334 336 331 322 320 319 318 320 327 323 327 333 332 328 328 320 325 322 319 319 321 321 321 323 324 326 329 330 331 330 330 329 328 328 328 328 329 329 328 327 332
312 320 326 331 339 340 337 335 337 333 327 319 318 319 320 321 325 327 334 335 335 327 330 322 325 320 319 320 321 321 323 326 328 332 333 332 331 331 331 332 331 331 331 331 331 331 331 329 328
318 327 330 335 337 339 336 333 332 330 327 319 320 321 320 322 324 327 332 335 335 329 332 325 323 320 320 321 322 323 325 326 329 336 336 336 336 335 334 333 332 332 332 332 332 332 332 332 330
326 329 329 337 338 334 333 332 329 327 326 319 320 323 321 322 324 327 329 331 334 332 333 326 322 321 321 322 324 324 324 325 332 337 336 338 337 336 334 334 332 332 332 332 332 333 334 333 333
329 326 334 335 335 331 328 328 327 327 325 321 321 323 322 321 324 327 326 330 333 334 333 326 322 322 322 324 325 324 324 324 327 336 338 338 336 336 333 333 333 332 332 332 331 332 332 334 333
328 322 330 333 331 328 327 326 327 326 324 322 322 322 321 321 325 326 326 328 330 330 329 326 323 323 325 326 326 325 323 323 325 326 330 332 332 333 333 331 332 332 332 331 331 332 331 331 333
327 327 331 330 331 330 328 325 326 325 325 323 320 323 320 321 324 326 326 327 328 328 327 326 325 326 327 327 325 324 323 324 324 325 325 325 325 325 328 331 331 331 330 330 331 331 332 331 331
324 325 331 329 331 329 327 325 323 325 325 322 322 323 321 320 324 327 329 330 329 328 328 327 328 329 328 327 325 323 322 323 323 324 326 325 325 325 325 326 327 329 329 330 331 329 331 331 331
322 328 328 329 329 328 325 327 324 323 324 322 323 322 322 322 323 329 330 331 330 330 329 329 329 331 328 326 323 323 324 326 326 328 329 326 326 326 325 325 324 326 328 328 329 329 329 329 330
327 327 327 326 326 327 325 327 326 326 325 325 322 321 323 321 321 322 324 326 329 330 330 330 332 328 326 323 323 325 324 328 331 329 326 328 327 326 326 324 323 325 327 328 328 330 331 330 330
326 330 328 326 326 327 327 327 327 326 325 324 323 324 321 319 318 319 322 324 325 327 328 331 331 326 323 324 326 323 324 326 327 330 329 330 328 327 326 325 323 323 325 327 326 326 326 327 329
328 326 328 325 325 327 328 327 328 327 327 326 325 322 320 319 318 318 319 321 322 323 326 328 325 324 325 326 324 323 325 326 326 326 326 329 329 326 325 324 324 323 323 323 323 323 323 323 327
326 326 326 326 324 325 327 328 328 327 327 326 324 320 321 320 319 320 320 320 319 320 322 323 324 325 325 326 324 326 326 326 326 326 327 327 327 326 325 325 325 325 324 323 323 323 323 324 327
322 325 325 324 324 326 327 326 326 326 326 323 322 320 320 320 319 319 319 319 319 319 319 320 323 325 326 324 325 326 327 327 327 327 327 328 327 326 326 326 325 326 325 323 323 323 323 324 325
315 316 315 316 318 319 321 322 323 324 323 322 321 320 320 320 319 318 319 319 318 318 319 322 325 326 325 326 326 327 327 328 328 328 329 328 328 328 327 326 326 327 325 324 324 323 323 323 325
316 315 317 316 318 317 319 320 320 321 320 322 321 320 318 319 319 320 320 319 318 319 320 324 326 326 326 326 327 328 328 329 329 329 328 328 328 328 327 327 326 326 324 324 324 324 323 323 324
314 315 314 313 315 317 319 319 319 320 320 321 321 320 319 319 318 320 320 318 319 320 322 325 327 326 326 327 328 329 329 329 329 329 327 326 328 328 328 326 326 325 325 325 325 324 323 324 325
314 315 314 313 316 315 315 317 318 319 319 320 320 320 320 318 318 318 318 319 320 321 324 326 326 326 327 328 329 329 328 329 329 329 327 327 327 327 327 326 325 325 325 325 325 324 323 324 324
313 314 314 316 318 318 317 318 320 320 319 319 319 319 319 317 317 317 318 319 321 324 326 326 326 327 328 329 329 330 329 329 329 329 328 327 327 328 327 325 325 325 325 324 322 323 324 324 325
316 315 316 317 319 320 319 319 319 319 319 319 320 320 320 319 322 319 318 320 322 324 325 326 326 327 329 329 328 329 328 328 328 329 328 327 327 327 328 326 325 326 325 322 322 323 325 325 325
319 318 317 318 319 319 319 319 319 320 319 320 321 320 320 319 321 319 319 320 322 323 325 326 327 328 331 329 329 328 327 327 327 327 327 326 327 325 325 327 327 326 324 322 322 324 325 325 325
319 319 320 321 318 318 319 322 319 320 321 321 320 318 319 321 322 319 319 319 322 324 325 326 327 330 331 330 329 329 328 327 327 327 326 327 327 327 327 327 326 326 324 322 322 324 325 325 326
318 318 321 319 317 317 318 321 320 319 321 321 320 319 317 320 321 320 319 321 322 324 326 327 329 331 331 330 329 328 327 326 326 326 327 327 327 328 328 327 326 324 324 323 322 324 324 325 325
316 316 316 317 316 320 319 321 321 321 321 321 320 321 321 322 320 319 319 320 321 324 326 328 330 331 331 329 328 326 326 326 326 327 327 327 328 328 327 327 327 326 325 323 323 323 325 324 325
314 313 314 316 319 321 319 321 320 320 320 321 321 319 321 322 320 320 320 319 320 325 327 329 329 330 330 328 327 325 325 325 327 328 328 329 328 328 328 328 327 326 326 323 323 325 325 326 326
313 313 315 317 321 323 320 324 322 320 321 320 320 320 321 322 320 321 320 319 321 325 328 328 328 329 329 328 327 325 325 325 326 326 328 328 329 329 329 328 327 326 325 323 323 325 325 326 326
312 314 313 316 320 322 322 321 320 321 321 321 321 323 322 322 321 320 320 319 321 326 327 327 328 328 328 328 328 326 326 327 326 327 328 329 329 328 329 329 328 324 326 323 324 325 325 326 326
312 313 314 314 321 325 323 324 323 323 323 325 325 323 322 321 321 321 321 319 322 326 327 327 328 327 328 328 328 328 329 329 327 327 327 328 328 328 329 329 328 325 326 325 326 326 326 326 326
310 314 312 312 316 321 323 323 319 322 322 324 324 322 322 322 322 322 321 320 322 325 326 327 327 326 328 328 328 328 329 328 326 327 328 328 328 328 329 329 328 327 327 326 326 326 327 327 327
312 310 311 316 316 316 319 321 319 321 320 322 323 322 321 321 322 322 320 318 320 323 325 326 326 326 328 327 328 328 329 327 325 328 328 328 328 328 328 328 328 328 327 326 327 327 326 325 326

GFSSGP_925_thetae_033.txt.gz
Theta_e
313 314 323 328 336 339 342 343 339 340 337 326 324 327 328 328 334 328 326 331 333 328 320 319 323 324 315 316 318 319 318 319 319 321 323 325 325 327 327 327 327 325 326 328 330 330 330 328 330
312 321 326 337 342 344 342 340 341 336 333 330 322 322 322 325 324 328 335 331 332 329 323 322 321 324 316 317 319 320 319 320 321 323 325 328 329 332 332 332 332 331 331 331 332 332 332 331 329
316 324 335 340 345 344 341 338 337 334 331 330 323 322 323 326 327 329 333 333 332 330 325 327 322 324 318 319 320 321 320 322 324 326 332 334 333 333 332 333 333 332 332 332 332 331 333 333 333
324 331 333 339 341 341 338 337 335 334 331 325 323 326 324 323 326 328 330 334 333 330 329 329 323 324 320 320 320 322 321 323 325 327 332 335 336 337 337 336 335 333 333 333 332 332 333 335 334
329 334 334 341 340 338 335 335 333 333 330 329 323 327 326 323 323 325 330 334 333 331 328 331 324 323 321 320 321 323 323 324 324 325 333 336 338 338 337 336 335 334 333 333 332 333 331 332 334
333 331 337 335 335 334 333 332 331 331 328 327 324 325 327 323 325 326 329 332 332 331 328 332 325 324 321 321 322 325 324 324 324 327 332 335 335 335 336 334 334 333 333 332 332 331 331 331 331
332 334 331 333 332 332 331 330 331 329 329 328 324 326 327 325 324 325 326 330 330 332 329 332 332 325 322 323 324 327 325 324 325 327 327 328 328 328 333 333 333 332 333 332 332 331 332 331 332
331 331 330 331 329 329 331 329 327 329 330 324 324 327 329 326 323 325 331 333 332 332 334 332 334 338 337 337 326 328 325 325 326 327 327 326 326 326 325 325 326 329 330 330 331 331 331 330 330
325 330 328 326 328 327 329 330 327 326 329 328 327 327 327 324 323 329 332 332 333 333 334 335 336 338 338 339 338 330 327 326 326 328 328 328 330 330 330 329 326 327 328 328 329 330 329 330 330
331 331 328 326 327 328 328 329 329 329 330 330 329 327 324 324 324 328 331 331 332 332 333 333 333 337 339 338 333 336 334 333 334 333 333 332 332 331 329 327 325 326 327 328 328 329 330 331 330
330 332 329 328 327 328 328 329 329 329 329 329 330 330 330 327 325 326 329 329 329 330 332 332 331 332 335 335 330 327 326 327 328 327 331 332 331 331 330 329 328 327 326 328 328 329 328 328 329
330 330 330 329 328 327 328 328 329 330 330 329 329 329 329 328 327 326 326 328 329 328 330 330 330 331 333 328 325 324 325 323 324 325 327 331 331 331 330 329 328 327 325 326 326 325 325 326 327
330 329 329 330 330 329 329 329 329 328 328 328 329 329 328 327 328 326 325 326 327 326 327 328 329 333 329 324 324 325 323 325 326 326 326 326 329 330 329 328 327 326 326 326 326 326 325 326 326
326 326 327 328 328 328 328 327 326 326 326 325 326 327 327 327 327 326 325 325 324 323 324 325 329 330 325 324 325 324 324 326 326 328 328 327 328 329 328 328 327 327 327 326 326 325 325 325 327
321 323 323 322 324 323 321 320 320 321 322 324 325 325 326 327 326 326 326 325 324 323 322 322 325 324 324 325 325 325 325 327 327 328 328 327 328 328 328 328 328 327 326 326 326 327 326 326 327
318 318 320 320 319 319 319 320 320 321 322 323 324 325 326 326 327 326 326 325 325 322 320 320 324 324 325 326 325 326 326 327 328 329 329 328 328 328 328 329 329 329 327 327 326 326 326 326 326
319 321 320 319 317 318 320 320 320 320 321 322 323 324 324 326 327 326 325 325 323 322 320 323 325 326 326 325 326 326 327 329 329 329 330 328 328 328 328 329 329 327 327 327 327 327 326 326 326
320 319 319 318 318 317 318 320 320 320 322 323 324 325 326 326 327 327 325 323 323 321 320 323 328 326 326 326 326 328 329 329 330 331 331 328 329 328 328 328 328 327 327 327 325 327 326 326 326
321 320 321 319 317 318 320 322 322 322 322 323 324 325 326 327 328 322 322 323 324 326 327 327 328 326 327 328 330 332 331 331 331 331 329 329 329 328 328 328 328 327 327 327 327 326 326 326 327
315 316 317 317 317 319 321 322 322 322 321 323 324 325 326 327 327 325 322 324 325 326 328 329 329 326 327 329 331 331 331 330 330 329 329 328 327 328 328 328 327 327 327 326 325 326 326 327 327
315 316 317 317 321 321 321 322 321 322 323 322 324 326 327 328 328 327 325 325 326 327 328 329 329 326 329 329 328 328 327 328 329 329 329 328 327 328 328 327 327 327 326 326 325 326 327 327 328
318 316 316 317 319 322 321 325 323 321 321 324 327 328 327 325 328 327 326 326 326 327 328 329 328 329 331 329 330 331 331 331 330 329 329 328 327 328 327 327 328 326 326 325 325 326 327 327 327
317 318 318 318 320 322 321 321 322 323 321 322 323 328 327 327 328 327 326 326 326 327 328 329 330 332 332 330 330 331 330 329 329 329 329 328 328 328 329 327 327 326 326 326 326 327 327 327 327
317 318 321 321 321 323 322 320 323 321 321 322 324 327 327 328 327 326 325 326 327 327 328 329 331 333 331 331 330 329 329 329 329 330 331 329 329 329 329 329 328 327 326 326 325 327 327 327 326
318 319 322 322 323 325 321 322 322 322 323 325 326 327 328 329 327 326 327 328 327 327 329 330 332 332 332 331 330 328 328 328 330 329 330 327 329 331 330 329 329 328 327 326 326 327 328 328 327
318 320 321 325 325 322 321 320 320 323 323 324 325 327 328 329 327 326 327 327 327 328 329 330 331 332 331 330 329 328 327 328 329 329 329 330 330 331 329 330 329 328 327 326 327 327 328 328 328
317 319 318 319 322 321 322 324 325 326 326 327 326 326 329 330 328 327 327 326 327 328 330 330 330 331 331 330 329 329 328 329 328 328 329 330 329 330 330 330 329 328 327 326 327 327 328 326 326
317 318 317 318 319 320 324 326 323 327 328 328 329 329 330 329 328 326 326 326 327 328 330 329 330 330 330 330 330 330 330 330 327 329 330 330 330 330 330 330 328 329 327 327 328 328 328 327 327
314 317 317 317 319 318 318 321 329 328 330 330 331 331 330 330 328 327 327 326 327 329 328 329 329 329 330 330 330 331 331 330 328 330 330 330 330 330 330 330 329 329 328 328 328 328 328 329 329
315 316 318 317 320 318 320 320 323 328 327 329 331 330 329 329 328 327 327 326 326 328 328 329 329 329 330 330 330 331 330 328 329 330 330 331 330 330 330 330 330 328 328 327 327 328 327 327 327

GFSSGP_925_thetae_036.txt.gz
Theta_e
310 321 328 332 335 330 334 340 341 341 340 333 332 332 331 331 332 334 332 338 338 331 336 327 320 322 315 314 316 318 318 319 319 320 321 323 323 323 326 324 321 321 327 330 330 331 331 329 329
322 324 330 337 331 335 337 342 341 338 336 334 333 332 329 330 329 329 334 336 336 331 335 337 321 323 318 314 317 318 319 318 319 320 324 327 331 333 333 332 332 331 330 331 332 333 333 332 331
324 329 336 336 341 341 340 339 338 336 334 333 332 328 329 331 329 329 336 337 336 332 334 337 324 323 322 315 317 319 319 319 320 322 324 328 332 333 333 334 334 334 333 333 333 332 333 334 334
325 331 334 338 337 339 342 338 337 336 334 331 331 332 329 328 329 330 336 337 335 333 334 337 327 323 324 316 317 319 320 321 322 323 325 330 336 335 335 336 336 336 334 333 333 333 332 334 335
329 332 332 333 333 335 339 338 336 336 334 332 329 331 331 329 327 329 336 336 333 333 333 338 330 323 324 319 319 320 321 322 322 323 325 328 334 336 337 336 337 337 336 334 334 333 334 333 333
332 332 333 332 331 334 334 333 333 334 333 331 329 329 330 329 329 330 333 337 333 333 333 338 336 323 324 322 320 321 322 323 323 323 324 325 333 338 337 338 336 335 335 335 333 333 332 332 332
332 332 329 330 331 332 332 332 333 334 333 331 330 330 330 331 329 330 332 335 335 334 334 338 341 330 324 324 321 321 323 325 324 325 325 327 333 334 334 334 334 334 334 334 334 332 331 332 331
331 331 331 330 331 330 330 332 333 333 333 331 329 332 332 332 330 329 332 332 335 335 334 336 340 339 341 339 326 323 324 326 327 326 327 329 334 331 331 330 327 327 331 331 332 332 332 333 332
330 331 331 330 329 330 331 331 331 331 331 331 331 332 331 330 329 331 332 332 333 333 335 334 337 337 339 337 338 331 330 331 330 329 332 332 331 331 332 331 329 328 329 330 329 330 331 332 331
332 332 330 330 330 330 330 331 330 331 331 331 330 331 330 331 331 332 331 333 333 333 334 335 336 337 338 336 338 342 338 335 336 336 334 334 333 332 332 330 330 328 328 328 328 329 330 330 326
332 333 332 332 330 330 330 331 330 330 331 330 330 330 331 331 331 333 332 331 331 332 333 334 337 338 338 337 338 338 335 334 334 334 333 334 333 332 332 331 331 331 329 328 327 329 329 326 328
332 332 332 331 331 331 331 331 331 331 331 330 330 329 329 330 332 332 332 332 331 331 332 334 336 339 340 337 337 334 331 331 331 330 334 334 333 333 332 332 331 330 329 328 327 327 327 328 327
330 331 331 331 331 331 331 332 332 331 330 330 329 328 328 328 329 328 330 331 331 330 332 334 336 339 341 340 335 331 330 329 329 330 332 332 332 332 333 332 331 329 329 328 328 327 327 327 327
327 327 329 330 331 332 331 331 330 330 329 327 326 326 326 326 325 325 327 330 333 330 331 333 336 339 340 339 333 332 332 329 331 330 332 332 332 332 332 332 331 330 329 329 329 327 328 327 327
325 327 327 329 329 330 330 330 329 327 325 325 324 326 325 324 324 326 326 329 332 332 331 332 335 338 339 336 334 332 330 331 330 331 333 333 333 332 332 332 331 331 330 330 331 329 328 328 328
324 326 328 327 327 327 326 328 327 326 325 325 325 325 324 324 326 325 328 329 331 333 331 331 332 336 337 334 333 331 331 331 330 332 333 334 334 333 333 332 331 330 331 330 330 330 327 328 327
324 327 327 327 325 324 324 327 326 325 325 325 326 327 325 325 327 327 329 330 331 332 331 330 331 333 334 334 332 332 332 332 331 333 333 333 334 333 332 332 331 330 332 330 330 329 328 328 327
326 326 327 329 327 322 324 325 325 324 325 326 327 326 326 326 327 328 328 330 330 331 330 331 331 332 334 333 333 332 331 332 333 333 332 333 333 332 332 330 330 330 330 329 330 329 329 328 327
325 327 328 327 326 325 326 326 326 326 327 328 328 327 326 329 329 328 330 329 330 330 331 331 331 333 333 332 331 330 331 332 332 332 333 333 333 332 331 331 330 329 330 329 329 328 328 327 328
323 325 327 327 326 327 325 325 328 328 328 328 327 326 328 330 331 331 331 330 330 331 332 333 333 334 333 332 331 332 333 331 332 332 333 333 332 331 331 330 330 330 329 329 328 328 327 327 328
321 323 325 326 325 325 324 325 327 328 328 327 326 326 325 329 332 333 332 331 331 332 333 333 334 334 333 332 334 334 333 333 332 333 333 333 331 331 331 331 330 329 330 330 329 327 327 329 329
321 320 320 320 322 324 323 329 329 329 328 328 327 326 327 331 332 334 333 333 332 332 332 333 334 334 334 334 333 333 332 332 333 332 332 332 331 331 330 330 330 330 330 329 327 327 329 330 329
318 318 319 320 321 323 323 326 328 328 328 328 327 326 328 332 333 334 333 332 331 332 332 333 334 333 335 334 333 334 333 333 332 332 332 333 332 331 331 331 330 330 330 328 327 328 330 331 329
317 318 320 321 322 326 325 327 329 330 330 329 327 325 330 334 334 333 332 331 331 331 332 333 334 335 335 335 335 334 334 333 332 333 332 333 332 332 331 330 331 330 329 328 328 329 330 330 330
317 320 324 326 328 329 327 329 330 328 327 325 325 327 333 334 334 333 333 333 332 331 332 332 334 334 334 334 334 332 333 333 333 332 332 332 332 332 331 331 331 330 329 328 329 330 330 331 330
318 321 322 326 331 330 328 330 329 326 326 326 325 325 332 334 334 334 333 333 331 331 332 332 333 333 333 333 332 331 333 332 332 332 332 332 332 333 332 332 331 330 330 329 329 330 330 330 331
318 323 322 327 328 326 330 328 325 324 325 324 327 326 332 335 334 334 333 332 331 332 332 332 331 331 332 332 332 332 333 333 332 333 333 333 333 332 332 331 331 330 330 328 330 330 331 331 329
320 320 324 324 329 330 326 326 326 326 326 325 328 330 333 335 334 333 333 332 331 332 332 331 330 331 332 332 332 333 333 333 331 332 332 333 333 332 332 331 331 330 329 328 329 330 331 329 331
318 321 322 323 324 328 329 326 324 327 325 328 331 332 336 335 334 333 332 331 332 332 332 330 330 331 332 332 333 334 333 332 331 332 332 333 333 332 332 331 331 330 329 329 330 330 330 330 331
318 319 322 323 325 324 325 323 327 328 330 330 330 333 336 335 333 332 332 332 332 332 331 329 329 330 331 331 333 334 332 332 332 332 332 332 332 332 331 331 330 331 331 331 330 330 330 331 331

GFSSGP_925_thetae_042.txt.gz
Theta_e
309 312 329 333 337 331 334 335 335 341 338 336 334 333 334 333 333 338 337 336 338 343 332 318 317 318 315 312 314 316 317 317 317 318 319 320 320 320 320 321 323 328 330 330 330 331 332 332 331
312 323 331 334 335 336 333 332 341 340 340 336 334 335 334 333 332 336 337 335 336 342 335 322 318 318 317 312 314 317 317 317 318 319 320 323 324 326 325 326 326 328 331 332 332 332 333 333 333
323 325 332 332 336 334 333 338 340 338 339 334 334 334 333 332 333 336 338 336 335 345 339 329 320 319 318 314 314 317 318 318 319 320 321 323 324 327 333 334 334 335 335 334 335 335 334 334 335
329 327 330 338 339 336 335 340 340 339 336 335 334 333 333 332 332 333 336 336 334 341 345 338 323 320 320 316 314 317 319 319 319 320 321 325 325 330 332 334 335 336 336 337 337 336 335 334 334
328 330 332 331 332 333 332 334 338 339 336 335 334 332 333 331 331 332 335 335 334 334 342 341 336 321 321 319 314 317 319 319 320 320 322 323 324 326 332 337 339 339 339 339 338 337 335 334 334
330 330 332 335 333 332 333 332 336 336 335 334 334 333 333 331 332 332 334 336 335 334 336 340 335 329 321 322 317 315 318 320 321 322 323 324 326 328 332 338 339 337 339 338 336 336 336 334 333
330 329 331 332 333 333 332 333 333 333 332 332 333 332 332 333 333 333 333 334 336 335 334 340 336 334 325 322 322 316 317 320 321 324 324 325 325 327 330 331 331 336 336 335 336 336 335 333 332
329 330 331 333 335 333 332 331 331 331 332 334 333 333 333 336 334 333 333 333 335 337 335 337 339 335 335 325 324 323 318 320 321 324 326 326 325 325 325 327 328 328 327 330 331 330 330 332 333
328 328 331 331 332 332 332 331 331 331 332 333 332 332 332 331 332 332 332 332 333 334 336 337 341 346 342 341 336 329 324 320 322 324 327 327 325 331 335 337 336 334 332 332 329 327 325 326 329
328 329 330 331 331 333 332 332 332 332 333 333 332 332 331 331 332 333 333 332 331 332 335 337 336 342 345 343 341 340 332 329 325 329 334 334 337 338 336 335 335 335 331 330 329 327 323 328 328
331 331 329 331 332 332 332 332 332 332 333 333 333 332 332 333 333 332 330 330 330 330 330 336 336 338 342 341 340 341 341 338 337 336 338 337 340 339 337 335 335 333 332 331 333 331 328 330 328
332 332 331 332 333 333 333 332 333 333 333 333 334 333 332 333 333 333 331 329 329 328 329 328 338 337 340 341 341 344 344 343 340 340 339 341 338 336 334 335 336 334 333 333 331 331 331 330 330
328 328 330 332 333 332 333 333 334 333 333 333 333 334 334 333 334 332 330 329 329 329 328 327 340 337 339 340 341 341 343 344 342 340 339 337 337 336 337 337 335 334 334 332 331 331 331 330 329
328 328 329 330 331 331 331 332 332 333 334 333 334 334 333 333 333 331 330 331 331 329 328 327 342 337 340 339 340 341 340 341 338 336 335 333 335 335 335 336 335 335 334 333 332 331 329 328 328
327 330 330 330 330 331 331 332 332 332 332 332 333 334 333 334 332 331 330 332 329 329 328 328 340 340 342 344 339 344 342 338 335 333 333 334 335 336 335 335 335 334 334 333 332 331 329 331 328
326 328 331 330 330 331 331 333 332 331 331 332 333 333 334 333 332 330 329 330 329 330 329 335 340 344 344 346 344 342 341 336 334 334 334 333 335 336 336 335 334 335 333 331 331 331 332 330 331
325 329 329 329 329 329 331 333 332 332 332 333 333 331 332 332 332 332 332 331 330 330 331 336 337 344 346 347 347 345 339 337 334 334 333 334 336 337 335 334 335 334 332 331 331 332 330 329 329
325 326 326 328 329 329 331 331 331 331 331 332 332 331 331 332 332 332 332 332 332 334 336 337 339 343 346 346 346 343 338 336 336 334 334 335 335 335 335 336 335 334 331 331 332 330 330 329 329
323 325 325 327 327 328 330 330 331 332 332 332 332 331 332 333 332 331 331 334 336 336 340 342 340 339 346 346 344 341 338 336 336 334 335 334 335 335 334 334 334 332 330 331 331 330 331 330 329
320 323 325 326 324 326 329 331 332 332 332 332 332 332 332 333 334 335 335 338 337 339 340 340 340 341 344 343 340 338 336 336 335 335 334 334 335 335 334 333 333 333 333 331 332 330 331 330 328
320 322 324 324 323 325 328 330 332 331 332 332 332 332 332 332 330 333 339 342 339 340 340 340 340 344 341 340 337 338 337 336 336 334 333 336 335 334 333 332 332 332 332 331 331 331 330 330 329
321 319 320 322 323 328 326 332 334 332 333 333 332 332 331 331 331 335 341 344 341 340 340 340 341 341 339 339 338 338 337 335 335 335 335 336 336 335 332 331 331 331 331 333 332 331 330 329 330
320 319 320 321 323 326 326 328 330 330 332 332 331 331 331 331 334 335 343 342 340 340 341 341 342 340 339 335 338 338 337 334 332 333 335 335 335 333 333 332 329 331 329 329 329 329 329 330 330
319 319 319 321 323 327 328 328 329 329 330 329 329 329 330 331 333 340 342 340 340 340 340 342 341 341 339 338 338 338 336 335 337 336 335 335 334 334 333 331 330 332 331 329 329 329 329 329 329
318 323 324 324 325 327 326 327 329 328 329 329 329 330 331 333 334 342 342 341 340 340 341 341 340 341 339 338 337 336 336 337 336 336 334 336 334 334 332 331 331 334 332 329 329 328 329 329 329
318 323 323 324 325 325 323 327 327 328 329 329 329 331 333 334 341 341 341 341 339 340 340 339 340 340 339 337 336 335 336 336 336 334 335 336 333 334 334 333 333 334 332 329 329 329 331 329 329
319 320 322 324 323 324 325 327 328 329 330 330 331 333 334 341 341 341 340 340 339 339 339 339 340 339 337 336 334 334 335 335 336 335 335 336 337 335 334 334 334 333 330 330 329 331 331 330 328
318 319 322 324 325 328 325 328 330 333 333 331 332 333 334 341 341 340 340 340 339 339 339 339 339 338 335 335 334 334 332 333 334 334 333 337 334 333 332 334 333 331 330 330 332 330 333 331 329
319 319 321 325 324 327 329 328 335 333 330 331 334 332 335 341 340 340 339 339 338 338 338 339 338 335 334 333 334 333 334 334 333 333 334 335 335 333 332 332 331 330 330 331 331 331 332 330 328
319 319 321 325 327 325 327 328 331 330 329 331 332 331 338 340 340 339 339 339 338 338 338 337 334 334 334 333 334 332 334 333 335 333 334 334 335 333 332 331 331 330 329 330 331 331 331 330 328

GFSSGP_925_thetae_045.txt.gz
Theta_e
318 310 329 330 333 329 329 331 331 337 341 336 331 331 332 330 335 340 336 337 338 331 320 317 317 317 314 312 315 316 316 316 317 317 317 318 318 318 317 318 322 327 328 328 329 330 330 328 330
312 324 328 330 335 335 330 327 328 340 339 336 332 333 331 332 336 336 337 338 337 329 321 318 317 318 316 313 315 317 316 317 317 317 318 320 321 323 324 323 324 328 331 331 331 332 332 332 332
314 322 326 331 335 330 331 332 336 338 338 336 334 332 331 333 337 337 337 340 337 331 323 319 317 319 318 313 315 317 317 317 317 318 318 321 323 325 326 328 329 332 334 334 333 335 334 334 334
324 326 325 333 337 335 332 332 337 339 337 337 336 332 331 332 333 337 337 336 338 335 328 321 318 318 319 315 314 317 318 318 318 318 319 321 322 324 327 331 335 336 336 337 337 337 336 335 335
326 326 328 330 331 333 333 333 335 338 337 336 336 332 332 331 335 335 337 335 334 338 332 324 320 319 319 317 314 317 318 318 318 319 319 321 322 323 325 329 335 337 338 338 339 339 338 335 335
325 326 329 331 331 330 330 330 335 336 336 334 332 332 331 331 333 335 335 335 334 334 338 330 324 321 320 319 315 315 318 319 319 319 320 321 322 323 326 330 333 337 338 338 338 337 336 336 334
331 327 327 327 329 330 330 329 331 331 329 332 331 332 330 330 332 333 335 335 336 334 334 338 331 325 322 321 319 315 317 319 319 320 321 321 323 323 326 325 325 331 333 336 334 336 334 335 331
329 327 327 327 329 330 330 330 327 328 330 332 332 332 331 330 332 332 333 335 335 337 335 338 337 330 326 322 321 320 315 318 320 321 323 323 323 323 324 323 326 328 329 330 330 328 327 327 328
331 329 326 326 327 329 329 329 330 330 330 330 331 330 330 332 333 333 332 331 335 337 335 336 337 335 330 327 322 322 321 317 321 323 326 326 326 323 323 331 335 335 333 329 330 329 328 325 325
334 329 327 325 326 328 329 330 330 331 331 331 332 331 331 331 331 330 330 329 330 330 337 336 337 337 335 332 328 325 325 324 324 327 329 330 328 325 335 335 336 336 335 333 331 330 329 326 324
331 331 327 326 326 328 329 331 332 332 331 331 332 331 329 329 330 330 330 329 329 329 331 339 338 337 337 338 334 332 328 328 326 326 329 328 330 334 339 337 336 335 335 333 331 331 332 327 328
329 329 329 327 328 328 329 331 332 331 330 331 331 331 331 329 328 328 328 330 330 329 328 330 338 339 341 342 339 336 335 335 332 328 328 331 335 338 340 336 336 335 333 333 332 332 330 331 330
325 325 327 330 329 329 330 331 331 330 330 330 330 330 329 329 329 330 331 330 330 329 328 329 331 338 341 344 342 340 339 338 338 337 335 336 337 340 337 334 335 335 334 333 333 332 331 331 331
323 326 326 325 326 328 329 329 329 330 329 329 328 328 328 328 328 330 330 329 330 331 327 326 328 333 340 343 341 340 341 340 340 341 339 339 341 339 335 337 338 335 334 334 333 332 331 331 328
320 321 322 324 326 326 327 328 328 328 328 329 328 328 327 328 329 327 330 328 331 329 328 328 328 331 339 341 341 342 342 342 344 342 341 341 338 334 335 335 336 336 334 334 333 332 331 330 328
321 321 322 322 324 327 327 329 328 328 328 329 328 328 328 327 329 330 329 329 328 329 330 328 332 338 341 341 345 344 343 343 342 338 335 335 334 334 335 335 335 334 335 334 332 331 331 331 330
319 322 321 323 324 326 327 328 328 327 328 328 328 328 328 326 325 328 329 328 329 329 331 335 338 340 341 342 341 343 343 339 335 334 333 333 333 334 336 335 334 334 335 333 331 331 331 331 330
321 322 322 322 324 325 326 326 326 326 326 328 327 328 328 327 325 326 329 328 328 333 332 336 342 342 345 345 343 342 340 337 335 333 334 334 334 335 336 335 334 336 334 331 331 330 330 330 329
319 322 323 323 323 324 324 324 324 325 325 325 326 326 326 326 325 327 329 330 336 336 338 341 345 347 346 346 346 345 338 338 335 335 334 333 336 336 336 334 335 334 333 332 330 331 330 330 329
316 317 318 321 323 322 323 324 325 325 325 325 326 326 327 326 328 329 331 337 337 341 342 343 347 347 346 346 344 342 340 337 335 334 334 335 334 335 335 333 334 334 332 332 331 331 331 330 329
316 316 316 317 320 321 321 321 321 323 325 326 327 326 327 326 326 324 335 337 339 341 340 340 343 346 346 344 342 339 337 337 335 336 336 335 334 334 333 334 333 331 332 332 332 330 330 330 329
316 317 317 319 319 320 320 321 321 322 324 326 327 326 326 326 326 324 337 337 339 340 339 340 345 344 342 340 339 339 338 335 335 334 334 335 335 335 333 332 331 331 331 331 330 329 330 329 328
316 317 317 318 318 318 319 320 321 324 326 326 327 326 326 325 324 324 337 339 340 340 340 342 342 340 340 338 337 337 336 337 335 334 334 335 335 335 333 332 330 330 330 328 329 330 330 329 328
314 317 317 316 316 318 318 320 321 321 322 324 325 324 324 322 324 337 338 339 340 341 341 341 340 338 339 339 337 336 335 336 336 336 335 335 334 333 333 333 331 330 331 330 329 328 329 329 329
312 313 315 318 318 318 317 321 322 322 323 324 324 324 323 324 332 339 339 338 339 340 342 341 339 341 336 339 337 337 337 336 336 334 334 335 335 332 334 333 331 330 330 329 329 329 328 329 329
309 313 315 319 320 318 319 321 320 322 323 323 324 323 323 325 337 338 338 337 338 340 341 340 341 339 337 337 336 335 336 334 334 335 335 335 333 332 334 330 331 330 328 328 329 327 329 328 329
308 310 314 315 318 318 319 319 319 319 320 322 323 325 336 336 338 338 337 337 339 339 339 340 340 339 338 336 335 335 335 336 335 334 334 335 335 335 334 332 333 330 329 330 329 328 329 329 328
315 311 315 315 318 321 320 320 320 320 323 323 326 327 337 338 337 337 336 337 338 338 339 339 339 338 338 335 333 334 334 333 333 333 333 334 333 333 333 333 332 330 330 330 329 329 329 327 326
314 310 311 314 316 320 322 320 320 329 329 325 327 326 338 337 337 337 337 337 338 338 339 340 339 337 336 334 333 334 332 333 332 333 334 335 334 332 331 332 331 330 330 331 329 329 330 328 328
315 313 311 314 318 318 320 321 320 324 328 326 327 327 336 336 337 336 337 336 337 337 339 339 337 335 334 332 333 333 334 333 333 333 333 334 334 333 332 330 330 330 329 330 330 331 331 330 327

GFSSGP_925_thetae_048.txt.gz
Theta_e
319 311 328 329 330 327 329 330 330 331 337 336 333 330 329 330 333 335 335 337 338 331 319 316 316 314 312 314 316 315 315 315 315 315 315 315 315 315 315 316 318 321 326 327 327 324 323 322 327
317 323 327 329 333 335 327 326 327 328 338 334 333 331 333 337 336 334 338 339 338 324 320 317 317 315 313 314 316 316 316 316 316 316 316 317 317 319 319 318 321 326 329 330 331 331 331 331 330
312 321 324 331 332 328 329 329 334 337 336 335 334 333 331 336 336 334 336 338 334 324 321 318 317 316 313 313 316 316 316 316 316 316 317 318 319 320 321 323 325 329 331 332 333 333 334 334 334
322 323 322 331 335 333 332 330 331 337 335 335 335 336 330 334 336 336 337 338 335 324 321 319 318 318 315 313 315 317 316 317 317 317 318 319 320 321 323 326 328 330 334 336 336 336 336 336 335
325 322 326 329 331 332 332 331 330 334 335 336 335 333 331 333 336 336 336 337 334 325 321 320 319 319 318 315 314 317 317 317 317 318 318 319 321 323 324 327 331 334 336 337 337 338 338 337 336
324 322 327 329 329 329 328 327 328 335 335 333 331 331 330 333 337 336 336 336 335 331 324 321 320 320 320 319 315 316 317 317 318 318 319 320 321 323 325 326 325 330 337 339 339 338 337 336 335
328 325 326 327 329 328 328 327 329 329 334 331 329 331 329 329 335 337 336 335 335 334 331 323 321 320 320 320 319 315 317 318 318 318 319 319 321 323 325 327 325 327 333 332 337 337 334 331 333
326 325 327 326 328 328 328 327 326 327 329 331 330 330 330 328 333 335 336 335 335 336 335 330 324 320 320 320 319 316 315 318 318 319 319 320 322 323 325 325 324 325 329 329 330 329 330 328 327
326 330 327 326 327 327 325 326 328 329 329 330 330 328 329 331 331 333 332 332 338 338 337 336 330 324 321 320 320 319 315 316 318 319 320 322 324 324 325 324 324 331 331 331 329 329 330 329 327
329 331 331 325 325 325 325 325 327 329 330 330 330 330 330 332 331 329 328 327 331 336 337 337 337 331 327 323 321 321 320 316 317 320 321 324 325 324 325 324 331 334 335 335 333 331 330 331 329
330 333 332 330 327 325 325 326 327 329 330 330 330 330 329 329 328 327 327 328 328 332 337 337 337 337 335 331 327 327 325 323 321 320 321 324 326 326 326 330 336 336 336 336 334 332 331 331 328
330 332 333 333 330 327 326 326 327 327 329 330 330 330 329 328 326 325 327 328 329 329 329 333 337 337 337 337 333 330 333 332 331 325 324 326 327 327 328 336 338 338 336 335 334 332 331 331 331
325 327 328 328 329 328 327 327 327 328 329 329 328 328 328 327 326 328 329 329 329 329 329 328 335 337 338 339 338 337 337 333 332 332 329 326 327 326 334 338 338 334 335 334 332 332 332 331 330
318 322 324 323 323 326 329 329 329 329 329 328 328 325 324 325 325 326 327 328 329 329 329 328 330 332 338 340 339 338 339 336 333 331 330 329 328 329 337 339 335 335 335 334 333 333 333 332 331
315 316 318 319 319 321 324 325 326 327 326 327 327 326 325 324 324 325 328 328 330 329 329 328 327 330 336 341 341 341 341 339 336 335 336 336 333 336 338 337 336 335 336 334 333 333 332 331 330
318 318 319 320 320 321 322 325 326 325 325 326 325 326 326 326 325 326 327 328 329 329 329 328 328 328 334 341 341 342 342 341 340 339 339 339 338 338 339 335 335 335 335 334 334 334 332 331 330
314 321 321 321 321 322 322 324 324 325 325 324 324 325 326 326 324 325 326 328 328 327 328 329 329 329 334 338 340 341 342 341 341 341 342 340 340 340 335 334 334 334 334 334 334 333 331 330 330
317 318 320 321 321 321 322 323 323 323 324 324 324 324 324 325 325 325 325 327 328 327 328 331 332 334 337 341 343 342 343 343 342 341 338 337 336 333 334 335 335 334 333 334 333 331 331 330 330
317 319 320 321 320 321 321 323 323 323 321 322 323 323 323 324 323 325 325 326 327 330 332 331 336 340 343 344 343 339 336 335 335 334 334 333 333 334 334 335 335 334 335 334 332 331 330 330 330
314 315 316 316 317 320 321 322 322 322 322 322 322 322 321 322 323 323 324 329 333 336 336 337 341 344 345 343 342 340 338 336 335 334 334 334 334 335 335 336 334 334 334 332 331 331 331 330 330
313 313 314 315 315 315 315 316 318 319 319 319 321 322 322 322 323 323 324 332 337 339 341 343 344 346 346 344 343 342 338 336 335 334 334 334 335 335 334 334 333 333 332 331 331 331 330 329 329
313 314 314 315 316 316 315 316 316 318 318 319 319 320 321 323 323 323 326 333 338 340 342 345 346 346 345 344 343 341 338 335 335 334 334 335 335 334 334 332 332 331 331 331 330 330 330 329 328
312 314 315 316 315 315 316 316 318 317 319 319 319 321 321 322 321 322 328 334 338 339 341 345 346 345 344 342 340 337 336 335 335 335 335 335 335 335 334 333 332 331 330 329 329 330 330 329 328
308 312 314 314 314 315 315 316 317 317 317 317 321 320 321 320 320 324 333 336 337 339 342 343 342 341 341 338 338 337 335 335 334 334 335 335 335 334 334 332 332 330 330 330 329 329 329 329 329
306 307 311 313 315 317 315 315 317 317 318 317 317 319 320 319 331 336 337 337 337 339 340 340 339 339 338 337 337 335 335 335 334 334 334 334 334 334 333 333 332 330 330 330 328 328 328 328 329
305 305 311 314 317 317 315 317 316 317 317 317 318 319 320 319 334 336 337 337 338 338 338 338 338 337 339 337 336 336 335 335 334 334 334 334 333 332 333 333 332 330 330 329 329 328 328 328 329
309 306 307 310 312 314 316 316 317 317 316 317 317 319 319 326 335 337 336 337 338 338 337 338 337 337 336 335 334 334 334 334 333 333 333 334 334 332 334 330 330 330 329 328 329 328 329 328 328
310 311 308 308 314 315 316 318 318 317 317 317 317 317 330 335 336 336 336 337 338 337 337 339 337 337 335 334 333 334 334 335 334 333 332 333 333 334 333 332 332 331 329 329 328 329 329 329 327
313 312 310 308 311 316 316 317 315 316 317 317 321 321 337 337 337 336 337 337 336 336 338 338 337 337 335 334 333 333 333 333 332 332 333 334 333 332 332 332 332 330 330 329 329 328 329 327 327
312 314 313 308 309 314 315 316 317 315 315 318 321 336 336 337 336 336 336 335 336 336 337 337 337 337 334 333 332 333 332 332 331 333 334 333 333 331 331 330 329 329 330 330 328 329 330 328 327